Tracking 30009 objects as of 7-Dec-2024
HD Live streaming from Space Station
objects crossing your sky now

STARLINK-5471

Track STARLINK-5471 now!
10-day predictions
STARLINK-5471 is classified as:


NORAD ID: 54766
Int'l Code: 2022-175J
Perigee: 545.6 km
Apogee: 548.2 km
Inclination: 53.2 °
Period: 95.4 minutes
Semi major axis: 6917 km
RCS: Unknown
Launch date: December 17, 2022
Source: United States (US)
Launch site: AIR FORCE EASTERN TEST RANGE (AFETR)
Your satellite tracking list
Your tracking list is empty




NASA's NSSDC Master Catalog

Two Line Element Set (TLE):
1 54766U 22175J   24342.39829658  .00002696  00000-0  18742-3 0  9998
2 54766  53.2185 296.9769 0001875  97.3177 262.8028 15.08840509110883
Source of the keplerian elements: AFSPC